K9APR Weather Reports


time (UTC)temp
F
wind
direction
speed
knots
gust
knots
rain 1hr
in
rain 24hr
in
rain mn
in
humidity
%
barometer
mb
20260507132623 45 303 2.6 2.6 0.00 0.00 0.00 68 1016.7
20260507131723 44 307 1.7 2.6 0.00 0.00 0.00 71 1016.8
20260507130856 44 299 1.7 2.6 0.00 0.00 0.00 73 1016.7
20260507130823 44 299 1.7 2.6 0.00 0.00 0.00 73 1016.7
20260507125923 43 293 2.6 4.3 0.00 0.00 0.00 77 1016.8
20260507125026 42 289 1.7 2.6 0.00 0.00 0.00 77 1016.5
20260507124127 42 292 1.7 1.7 0.00 0.00 0.00 79 1016.6
20260507123223 41 295 0.9 0.9 0.00 0.00 0.00 84 1016.6
20260507122327 40 285 0.9 1.7 0.00 0.00 0.00 84 1016.6
20260507121426 39 291 0.9 0.9 0.00 0.00 0.00 85 1016.6
20260507120601 39 297 0.0 0.9 0.00 0.00 0.00 87 1016.5
20260507120524 39 297 0.0 0.9 0.00 0.00 0.00 87 1016.5
20260507115622 38 297 0.0 0.9 0.00 0.00 0.00 86 1016.5
20260507114723 38 297 0.0 0.0 0.00 0.00 0.00 86 1016.4
20260507113855 37 297 0.0 0.0 0.00 0.00 0.00 86 1016.4
20260507113824 37 297 0.0 0.0 0.00 0.00 0.00 86 1016.4
20260507112923 37 297 0.0 0.0 0.00 0.00 0.00 87 1016.5
20260507112022 36 297 0.0 0.0 0.00 0.00 0.00 87 1016.5
20260507111122 36 297 0.0 0.0 0.00 0.00 0.00 87 1016.4
20260507110222 35 297 0.0 0.0 0.00 0.00 0.00 87 1016.4
20260507105326 36 297 0.0 0.0 0.00 0.00 0.00 87 1016.3
20260507104422 36 297 0.0 0.0 0.00 0.00 0.00 87 1016.1
20260507103522 36 297 0.0 0.0 0.00 0.00 0.00 85 1016.0
20260507102625 36 297 0.0 0.0 0.00 0.00 0.00 85 1016.0
20260507101723 36 297 0.0 0.0 0.00 0.00 0.00 84 1016.0
20260507100003 37 297 0.0 0.0 0.00 0.00 0.00 82 1015.9
20260507095923 37 297 0.0 0.0 0.00 0.00 0.00 82 1015.9
20260507095023 38 297 0.0 0.0 0.00 0.00 0.00 82 1016.0
20260507094123 38 297 0.0 0.0 0.00 0.00 0.00 81 1015.9
20260507093223 39 297 0.0 0.0 0.00 0.00 0.00 81 1016.0
20260507091423 40 297 0.9 0.9 0.00 0.00 0.00 79 1016.0
20260507090607 40 294 0.9 0.9 0.00 0.00 0.00 78 1015.9
20260507090522 40 294 0.9 0.9 0.00 0.00 0.00 78 1015.9
20260507085623 41 297 0.9 1.7 0.00 0.00 0.00 77 1015.8
20260507084751 41 306 0.9 1.7 0.00 0.00 0.00 76 1015.7
20260507083822 42 306 1.7 1.7 0.00 0.00 0.00 76 1015.7
20260507082923 42 305 1.7 1.7 0.00 0.00 0.00 76 1015.7
20260507082022 42 307 1.7 2.6 0.00 0.00 0.00 77 1015.6
20260507081122 41 305 1.7 2.6 0.00 0.00 0.00 78 1015.6
20260507080222 41 306 1.7 1.7 0.00 0.01 0.00 81 1015.7
20260507075323 40 307 1.7 2.6 0.00 0.01 0.00 83 1015.7
20260507074424 40 293 1.7 2.6 0.00 0.01 0.00 87 1015.7
20260507073523 39 296 0.9 1.7 0.00 0.02 0.00 88 1015.7
20260507072625 40 300 0.0 0.9 0.00 0.02 0.00 87 1015.7
20260507071723 40 300 0.0 0.9 0.00 0.03 0.00 87 1015.7
20260507070907 40 300 0.0 0.0 0.00 0.03 0.00 88 1015.8
20260507070823 40 300 0.0 0.0 0.00 0.03 0.00 88 1015.8
20260507065922 40 300 0.0 0.9 0.00 0.03 0.00 88 1015.8
20260507065022 41 300 0.0 0.9 0.00 0.03 0.00 88 1015.9
20260507064122 41 300 0.0 0.0 0.00 0.03 0.00 89 1016.0
20260507062322 40 300 0.0 0.0 0.00 0.03 0.00 89 1016.1
20260507061424 41 300 0.0 0.0 0.00 0.03 0.00 89 1016.1
20260507060522 41 300 0.0 0.0 0.00 0.04 0.00 89 1016.0
20260507055624 41 300 0.0 0.0 0.00 0.05 0.00 89 1016.0
20260507054723 41 300 0.0 0.0 0.00 0.07 0.00 88 1015.9
20260507053857 41 300 0.0 0.0 0.00 0.08 0.00 88 1015.9
20260507053822 41 300 0.0 0.0 0.00 0.08 0.00 88 1015.9
20260507052923 41 300 0.0 0.0 0.00 0.10 0.00 87 1015.9
20260507052024 42 300 0.0 0.0 0.00 0.10 0.00 87 1015.8
20260507051123 42 300 0.0 0.0 0.00 0.12 0.00 88 1015.9
20260507050222 42 300 0.0 0.0 0.00 0.12 0.00 87 1016.0
20260507045323 42 300 0.0 0.0 0.00 0.14 0.00 87 1016.0
20260507044422 43 300 0.0 0.9 0.00 0.16 0.00 86 1015.8
20260507043522 43 300 0.0 0.0 0.00 0.19 0.00 86 1015.7
20260507042622 43 300 0.0 0.0 0.00 0.22 0.00 84 1015.7
20260507040823 43 300 0.0 0.0 0.00 0.29 0.00 85 1015.8
20260507035923 43 300 0.0 0.0 0.00 0.29 0.00 85 1015.8
20260507035022 43 300 0.0 0.0 0.00 0.29 0.29 85 1015.9
20260507034123 44 300 0.0 0.0 0.00 0.30 0.29 85 1015.9
20260507033222 44 300 0.0 0.0 0.00 0.31 0.29 86 1016.0
20260507032322 43 299 0.0 0.0 0.00 0.37 0.29 85 1015.9
20260507031426 43 300 0.0 0.0 0.00 0.43 0.29 84 1015.9
20260507030522 43 300 0.0 0.0 0.00 0.50 0.29 84 1015.9
20260507025621 44 300 0.0 0.0 0.00 0.50 0.29 84 1016.0
20260507024723 44 300 0.0 0.0 0.00 0.50 0.29 84 1016.0
20260507023822 45 300 0.0 0.0 0.00 0.51 0.29 84 1015.8
20260507022922 45 300 0.0 0.0 0.00 0.51 0.29 83 1016.0
20260507022021 45 300 0.0 0.0 0.00 0.51 0.29 82 1015.9
20260507021122 45 300 0.0 0.0 0.00 0.51 0.29 81 1015.8
20260507020720 46 300 0.0 0.0 0.00 0.52 0.29 80 1015.8
20260507020224 46 300 0.0 0.0 0.00 0.52 0.29 80 1015.8
20260507015322 46 300 0.0 0.0 0.00 0.53 0.29 79 1015.7
20260507014423 47 300 0.0 0.0 0.00 0.54 0.29 78 1015.6
20260507013522 48 299 0.0 0.0 0.00 0.55 0.29 77 1015.5
20260507012621 49 300 0.0 0.0 0.00 0.57 0.29 77 1015.3
20260507011723 49 299 0.0 0.0 0.00 0.60 0.29 74 1015.2
20260507010821 50 299 0.0 0.0 0.00 0.61 0.29 73 1015.1
20260507005922 51 299 0.0 0.0 0.00 0.62 0.29 70 1015.1
20260507005023 51 299 0.0 0.0 0.00 0.63 0.29 70 1015.1
20260507004123 52 299 0.0 0.0 0.00 0.66 0.29 69 1015.1
20260507003222 52 299 0.9 0.9 0.00 0.69 0.29 68 1014.9
20260507002324 52 298 0.9 1.7 0.00 0.72 0.29 68 1014.8
20260507001424 53 302 1.7 2.6 0.00 0.78 0.29 65 1014.6
20260507000523 54 304 2.6 2.6 0.00 0.82 0.29 62 1014.6
20260506235622 55 306 2.6 2.6 0.00 0.86 0.29 61 1014.5
20260506234723 55 307 4.3 5.2 0.00 0.90 0.29 60 1014.3
20260506233823 55 290 4.3 5.2 0.00 0.93 0.29 64 1014.3
20260506232922 55 304 2.6 4.3 0.00 0.96 0.29 60 1014.5
20260506232023 55 302 4.3 4.3 0.00 0.98 0.29 62 1014.5
20260506231122 55 303 1.7 2.6 0.00 1.00 0.29 64 1014.5
20260506230225 54 304 0.9 1.7 0.00 1.01 0.29 65 1014.5
20260506225322 54 305 0.9 1.7 0.00 1.03 0.29 65 1014.6
20260506224424 54 310 0.9 1.7 0.00 1.06 0.29 64 1014.6
20260506223523 54 308 0.9 2.6 0.00 1.08 0.29 65 1014.9
20260506222623 54 291 2.6 4.3 0.00 1.11 0.29 65 1015.0
20260506220825 54 296 2.6 4.3 0.00 1.16 0.29 64 1015.0
20260506215922 55 291 2.6 5.2 0.00 1.17 0.29 64 1015.0
20260506215023 55 302 4.3 6.1 0.00 1.18 0.29 61 1014.7
20260506214123 55 304 2.6 2.6 0.00 1.19 0.29 62 1014.6
20260506212322 55 307 4.3 5.2 0.00 1.19 0.29 59 1014.5
20260506211425 55 294 4.3 4.3 0.00 1.19 0.29 61 1014.6
20260506210523 55 313 2.6 4.3 0.00 1.19 0.29 56 1014.5
20260506205623 56 284 0.9 2.6 0.00 1.19 0.29 62 1014.5
20260506204723 55 292 4.3 4.3 0.00 1.19 0.29 58 1014.5
20260506203821 55 309 1.7 2.6 0.00 1.19 0.29 58 1014.6
20260506202924 55 294 1.7 4.3 0.00 1.19 0.29 57 1014.7
20260506202023 55 302 1.7 2.6 0.00 1.19 0.29 61 1014.6
20260506201122 55 306 4.3 4.3 0.00 1.19 0.29 61 1014.7
20260506200223 55 303 1.7 2.6 0.00 1.20 0.29 58 1014.6
20260506195402 55 315 2.6 2.6 0.00 1.22 0.29 62 1014.6
20260506195323 55 315 2.6 2.6 0.00 1.22 0.29 62 1014.6
20260506193523 55 313 2.6 5.2 0.00 1.25 0.29 61 1014.3
20260506192622 55 307 2.6 4.3 0.00 1.26 0.29 63 1014.3
20260506191723 54 297 0.9 1.7 0.00 1.27 0.29 63 1014.3
20260506190823 54 291 1.7 2.6 0.00 1.30 0.29 62 1014.4
20260506185923 54 310 2.6 2.6 0.00 1.32 0.29 62 1014.5
20260506184123 55 304 1.7 2.6 0.00 1.36 0.29 62 1014.5
20260506183224 54 282 0.9 2.6 0.00 1.37 0.29 63 1014.6
20260506182324 54 296 1.7 4.3 0.00 1.37 0.29 64 1014.6
20260506181422 54 307 0.9 0.9 0.00 1.37 0.29 60 1014.6
20260506180525 54 294 2.6 4.3 0.00 1.37 0.29 61 1014.5
20260506175622 54 297 0.9 1.7 0.00 1.37 0.29 61 1014.3
20260506174723 54 322 0.9 2.6 0.00 1.38 0.29 63 1014.3
20260506173822 54 304 0.9 0.9 0.00 1.38 0.29 64 1014.6
20260506173015 54 306 0.9 0.9 0.00 1.38 0.29 65 1014.7
20260506172922 54 306 0.9 0.9 0.00 1.38 0.29 65 1014.7
20260506172023 54 304 1.7 2.6 0.00 1.38 0.29 61 1014.8
20260506171123 54 317 0.9 0.9 0.00 1.38 0.29 62 1014.8
20260506170222 54 304 2.6 2.6 0.00 1.38 0.29 62 1014.7
20260506165322 54 299 0.9 4.3 0.00 1.38 0.29 64 1014.4
20260506164423 55 291 1.7 2.6 0.00 1.38 0.29 62 1014.3
20260506163522 54 312 1.7 2.6 0.00 1.38 0.29 66 1014.4
20260506162621 54 298 0.9 4.3 0.00 1.38 0.29 63 1014.5
20260506161723 53 305 0.9 0.9 0.00 1.38 0.29 63 1014.5
20260506160856 54 304 1.7 2.6 0.00 1.38 0.29 63 1014.4
20260506160823 54 304 1.7 2.6 0.00 1.38 0.29 63 1014.4
20260506155922 54 299 0.9 1.7 0.00 1.38 0.29 66 1014.5
20260506155022 54 310 1.7 1.7 0.00 1.38 0.29 66 1014.4
20260506154121 54 310 1.7 2.6 0.00 1.38 0.29 63 1014.6
20260506153223 54 302 1.7 2.6 0.00 1.38 0.29 64 1014.1
20260506152322 54 286 1.7 2.6 0.00 1.38 0.29 65 1014.3
20260506151422 53 300 4.3 5.2 0.00 1.38 0.29 65 1014.0
20260506150523 52 307 0.9 2.6 0.00 1.38 0.29 65 1014.1
20260506145621 52 303 4.3 5.2 0.00 1.38 0.29 69 1014.0
20260506144721 51 293 5.2 7.0 0.00 1.38 0.29 68 1013.9
20260506143821 51 315 1.7 2.6 0.00 1.38 0.29 69 1013.6
20260506142922 50 323 0.9 1.7 0.00 1.38 0.29 71 1013.5
20260506142023 50 304 1.7 5.2 0.00 1.38 0.29 72 1013.5
20260506141122 49 309 0.9 2.6 0.00 1.38 0.29 74 1013.3
20260506135321 48 306 1.7 4.3 0.00 1.38 0.29 77 1013.6
20260506134423 48 297 4.3 4.3 0.00 1.38 0.29 79 1013.6
20260506133521 47 305 0.9 2.6 0.00 1.38 0.29 81 1013.4